Regional Weather Roundup
Issued by NWS

Home | Current Version | Previous Version | Text Only | Print | Product List | Glossary Off
Versions: 1 2 3 4 5 6 7 8 9 10 11 12 13 14 15 16 17 18 19 20 21 22 23 24 25 26 27 28 29 30 31 32 33 34 35 36 37 38 39 40 41 42 43 44 45 46 47 48 49 50

000
ASUS43 KIND 281959
RWRIN

WEATHER ROUNDUP FOR INDIANA
NATIONAL WEATHER SERVICE INDIANAPOLIS IN
400 PM EDT SUN MAY 28 2017

NOTE: "FAIR" INDICATES FEW OR NO CLOUDS BELOW 12,000 FEET WITH NO
SIGNIFICANT WEATHER AND/OR OBSTRUCTIONS TO VISIBILITY.

* - STATION DOES NOT REPORT WEATHER SUCH AS PRECIPITATION OR FOG.

+ - STATION NOT QUALITY CONTROLLED BY THE NATIONAL WEATHER SERVICE.
    USE DATA WITH CAUTION...ESPECIALLY DEWPOINT AND RELATIVE
    HUMIDITY OBSERVATIONS.

INZ001>003-010>013-019-020-282100-
NORTHWEST INDIANA

CITY           SKY/WX    TMP DP  RH WIND       PRES   REMARKS
GARY /AIRPORT/ PTSUNNY   66  57  72 N9        29.75R
MICHIGAN CITY+ SUNNY     72  61  68 N6        29.73R
MONTICELLO +   PTSUNNY   79  61  54 W13       29.70F
RENSSELAER +   MOSUNNY   79  52  38 W13G18    29.70F

$$

LMZ046-743>745-282100-
SOUTHERN LAKE MICHIGAN

STATION/POSITION TIME  TEMP    WIND        PRES    WAVE
                       AIR SEA DIR/SP/G            HT
                 (UTC) (F)     (DEG/KT/KT) (MB)    (FT)
BURNS HARBOR     1940   60      70/  7/  8 1007.1F
MICHIGAN CITY    1930   57      40/  7/  8   N/A
5NW MICH CITY    1950   58 57  360/  2/  2   N/A     1

$$

INZ004-005-014>016-021>024-282100-
NORTH CENTRAL INDIANA

CITY           SKY/WX    TMP DP  RH WIND       PRES   REMARKS
GOSHEN         CLOUDY    75  62  64 NW13      29.68F
SOUTH BEND     PTSUNNY   74  63  68 W14       29.71S

$$

INZ006>009-017-018-025>027-282100-
NORTHEAST INDIANA

CITY           SKY/WX    TMP DP  RH WIND       PRES   REMARKS
ANGOLA *+      PTSUNNY   64  57  77 CALM      29.69F
FORT WAYNE     PTSUNNY   76  65  68 SW14      29.69F
KENDALLVILLE + LGT RAIN  65  62  92 CALM      29.71R

$$

INZ028-029-035-036-043>045-051>053-282100-
WEST CENTRAL INDIANA

CITY           SKY/WX    TMP DP  RH WIND       PRES   REMARKS
GREENCASTLE +  CLOUDY    73  63  68 W5        29.77S
LAFAYETTE      CLOUDY    75  67  76 SW7       29.71F
TERRE HAUTE    PTSUNNY   77  63  61 W14       29.76F

$$

INZ030>032-037>040-046>048-054>057-064-065-282100-
CENTRAL INDIANA

CITY           SKY/WX    TMP DP  RH WIND       PRES   REMARKS
COLUMBUS       CLOUDY    73  59  60 SW12      29.77F
INDIANAPOLIS   PTSUNNY   77  63  61 SW13      29.74F
-EAGLE CREEK   PTSUNNY   76  62  62 SW9       29.74S
KOKOMO +       CLOUDY    75  65  70 W15       29.73S
SHELBYVILLE    PTSUNNY   76  61  59 SW10      29.75F

$$

INZ033-034-041-042-049-050-058-059-282100-
EAST CENTRAL INDIANA

CITY           SKY/WX    TMP DP  RH WIND       PRES   REMARKS
MUNCIE         PTSUNNY   78  63  59 W12       29.72F
RICHMOND +     PTSUNNY   72  61  68 SW15      29.79S

$$

INZ060-061-067>069-081>083-085>088-282100-
SOUTHWEST INDIANA

CITY           SKY/WX    TMP DP  RH WIND       PRES   REMARKS
EVANSVILLE     CLOUDY    76  64  66 SW13      29.83R
HUNTINGBURG *+ CLOUDY    74  65  73 SW10      29.82S

$$

INZ062-063-066-070>080-084-089>092-282100-
SOUTH CENTRAL AND SOUTHEAST INDIANA

CITY           SKY/WX    TMP DP  RH WIND       PRES   REMARKS
BLOOMINGTON    CLOUDY    76  62  62 W12       29.78S
MADISON *+     CLOUDY    70  61  73 SW7       29.84R
SEYMOUR +      CLOUDY    75  63  64 SW15      29.79S

$$




USA.gov is the U.S. government's official web portal to all federal, state and local government web resources and services.